JBU598 KMCO-KLGA

Flight info

Callsign JBU598
Flight time 2h 7m
Altitude 35000
Route FATHE4 VIYAP Q87 HURTS PROUD2
Aircraft A320/M-SADE3GHIJJ3J4M3P2RWXZ/LB1D1

Departure

Time 2026-05-06 21:02
Airport Orlando International Airport (KMCO)

Arrival

Time 2026-05-06 23:09
Airport LaGuardia Airport (KLGA)
Time Latitude Longitude Altitude Speed Heading
2026-05-06 20:37 28.41486 -81.31459 94 ft 0 kts 94°
2026-05-06 20:49 28.41487 -81.31483 94 ft 4 kts 92°
2026-05-06 20:49 28.41487 -81.31514 94 ft 4 kts 84°
2026-05-06 20:50 28.41481 -81.31543 93 ft 4 kts 58°
2026-05-06 20:50 28.41468 -81.31557 94 ft 1 kts
2026-05-06 20:50 28.41467 -81.31557 94 ft 0 kts
2026-05-06 20:53 28.41468 -81.31557 94 ft 0 kts
2026-05-06 20:53 28.41512 -81.31552 94 ft 12 kts
2026-05-06 20:54 28.41601 -81.31559 97 ft 14 kts 330°
2026-05-06 20:54 28.41649 -81.31653 97 ft 14 kts 293°
2026-05-06 20:54 28.41689 -81.31754 98 ft 15 kts 301°
2026-05-06 20:54 28.41761 -81.31840 99 ft 16 kts 295°
2026-05-06 20:55 28.41862 -81.31876 99 ft 17 kts
2026-05-06 20:55 28.41998 -81.31878 99 ft 22 kts 360°
2026-05-06 20:55 28.42153 -81.31865 98 ft 23 kts 13°
2026-05-06 20:55 28.42259 -81.31800 99 ft 13 kts 71°
2026-05-06 20:56 28.42264 -81.31675 98 ft 18 kts 88°
2026-05-06 20:56 28.42267 -81.31517 96 ft 21 kts 90°
2026-05-06 20:56 28.42269 -81.31338 94 ft 24 kts 89°
2026-05-06 20:56 28.42253 -81.31148 95 ft 24 kts 102°
2026-05-06 20:57 28.42232 -81.30953 94 ft 26 kts 86°
2026-05-06 20:57 28.42247 -81.30754 94 ft 25 kts 85°
2026-05-06 20:57 28.42261 -81.30566 96 ft 25 kts 85°
2026-05-06 20:57 28.42273 -81.30365 95 ft 25 kts 86°
2026-05-06 20:58 28.42277 -81.30164 94 ft 26 kts 90°
2026-05-06 20:58 28.42279 -81.29959 94 ft 23 kts 89°
2026-05-06 20:58 28.42281 -81.29791 95 ft 17 kts 89°
2026-05-06 20:58 28.42313 -81.29706 97 ft 13 kts 21°
2026-05-06 20:59 28.42407 -81.29701 96 ft 14 kts 359°
2026-05-06 20:59 28.42513 -81.29702 95 ft 16 kts 359°
2026-05-06 20:59 28.42630 -81.29703 97 ft 18 kts 360°
2026-05-06 20:59 28.42759 -81.29704 97 ft 19 kts 359°
2026-05-06 21:00 28.42897 -81.29706 97 ft 20 kts 359°
2026-05-06 21:00 28.43043 -81.29708 97 ft 22 kts 359°
2026-05-06 21:00 28.43200 -81.29709 95 ft 23 kts
2026-05-06 21:00 28.43363 -81.29711 98 ft 22 kts 360°
2026-05-06 21:01 28.43510 -81.29712 96 ft 16 kts 359°
2026-05-06 21:01 28.43551 -81.29631 99 ft 13 kts 88°
2026-05-06 21:01 28.43480 -81.29586 98 ft 14 kts 178°
2026-05-06 21:01 28.43209 -81.29582 100 ft 72 kts 179°
2026-05-06 21:02 28.42488 -81.29574 95 ft 130 kts 179°
2026-05-06 21:02 28.41430 -81.29559 114 ft 171 kts 178°
2026-05-06 21:02 28.40240 -81.29515 687 ft 170 kts 176°
2026-05-06 21:02 28.39059 -81.29455 1320 ft 171 kts 175°
2026-05-06 21:03 28.37858 -81.29073 1531 ft 190 kts 150°
2026-05-06 21:03 28.36709 -81.28200 1874 ft 208 kts 147°
2026-05-06 21:03 28.35588 -81.27068 2158 ft 225 kts 123°
2026-05-06 21:03 28.35098 -81.25325 2562 ft 245 kts 91°
2026-05-06 21:04 28.35594 -81.23411 3002 ft 268 kts 56°
2026-05-06 21:04 28.37061 -81.22078 3768 ft 277 kts 21°
2026-05-06 21:04 28.38954 -81.21726 4658 ft 277 kts 359°
2026-05-06 21:04 28.40876 -81.21958 5536 ft 279 kts 349°
2026-05-06 21:05 28.42778 -81.22404 6422 ft 279 kts 347°
2026-05-06 21:05 28.44672 -81.22880 7218 ft 280 kts 348°
2026-05-06 21:05 28.46582 -81.23326 7997 ft 282 kts 349°
2026-05-06 21:05 28.48533 -81.23708 8713 ft 286 kts 352°
2026-05-06 21:06 28.50511 -81.24025 9477 ft 287 kts 352°
2026-05-06 21:06 28.52506 -81.24320 10162 ft 292 kts 353°
2026-05-06 21:06 28.54591 -81.24616 10338 ft 313 kts 353°
2026-05-06 21:06 28.56834 -81.24928 10474 ft 335 kts 353°
2026-05-06 21:07 28.59187 -81.25256 10819 ft 346 kts 353°
2026-05-06 21:07 28.61587 -81.25594 11389 ft 349 kts 353°
2026-05-06 21:07 28.64011 -81.25940 11971 ft 352 kts 352°
2026-05-06 21:07 28.66451 -81.26292 12571 ft 354 kts 352°
2026-05-06 21:08 28.68905 -81.26647 13191 ft 357 kts 352°
2026-05-06 21:08 28.71373 -81.27004 13795 ft 359 kts 352°
2026-05-06 21:08 28.73864 -81.27363 14327 ft 361 kts 351°
2026-05-06 21:08 28.76363 -81.27723 14845 ft 364 kts 351°
2026-05-06 21:09 28.78887 -81.28087 15340 ft 366 kts 351°
2026-05-06 21:09 28.81431 -81.28454 15802 ft 371 kts 351°
2026-05-06 21:09 28.84004 -81.28824 16295 ft 374 kts 351°
2026-05-06 21:09 28.86603 -81.29135 16806 ft 377 kts 352°
2026-05-06 21:10 28.89227 -81.29374 17303 ft 380 kts 353°
2026-05-06 21:10 28.91877 -81.29576 17811 ft 383 kts 353°
2026-05-06 21:10 28.94546 -81.29766 18318 ft 386 kts 353°
2026-05-06 21:10 28.97239 -81.29966 18791 ft 389 kts 352°
2026-05-06 21:11 28.99944 -81.30181 19264 ft 390 kts 352°
2026-05-06 21:11 29.02654 -81.30443 19744 ft 392 kts 351°
2026-05-06 21:11 29.05412 -81.30751 20242 ft 394 kts 349°
2026-05-06 21:11 29.08139 -81.31076 20734 ft 395 kts 349°
2026-05-06 21:12 29.10882 -81.31405 21215 ft 397 kts 349°
2026-05-06 21:12 29.13652 -81.31675 21681 ft 400 kts 351°
2026-05-06 21:12 29.16439 -81.31866 22134 ft 403 kts 352°
2026-05-06 21:12 29.19247 -81.32011 22574 ft 405 kts 352°
2026-05-06 21:13 29.22071 -81.32142 23005 ft 407 kts 352°
2026-05-06 21:13 29.24911 -81.32279 23426 ft 409 kts 351°
2026-05-06 21:13 29.27767 -81.32426 23818 ft 411 kts 351°
2026-05-06 21:13 29.30633 -81.32586 24147 ft 413 kts 351°
2026-05-06 21:14 29.33512 -81.32761 24464 ft 415 kts 351°
2026-05-06 21:14 29.36399 -81.32943 24802 ft 417 kts 351°
2026-05-06 21:14 29.39301 -81.33125 25131 ft 418 kts 351°
2026-05-06 21:14 29.42209 -81.33302 25455 ft 420 kts 351°
2026-05-06 21:15 29.45136 -81.33479 25774 ft 422 kts 351°
2026-05-06 21:15 29.48075 -81.33657 26094 ft 423 kts 350°
2026-05-06 21:15 29.51024 -81.33837 26399 ft 425 kts 350°
2026-05-06 21:15 29.53981 -81.34017 26715 ft 427 kts 350°
2026-05-06 21:16 29.56956 -81.34196 27037 ft 429 kts 350°
2026-05-06 21:16 29.59947 -81.34375 27338 ft 431 kts 350°
2026-05-06 21:16 29.62951 -81.34557 27648 ft 433 kts 350°
2026-05-06 21:16 29.65965 -81.34738 27951 ft 435 kts 350°
2026-05-06 21:17 29.68994 -81.34913 28269 ft 437 kts 350°
2026-05-06 21:17 29.72031 -81.35082 28567 ft 439 kts 350°
2026-05-06 21:17 29.75091 -81.35250 28885 ft 440 kts 350°
2026-05-06 21:17 29.78140 -81.35421 29325 ft 438 kts 350°
2026-05-06 21:18 29.81183 -81.35595 29776 ft 437 kts 350°
2026-05-06 21:18 29.84223 -81.35768 30231 ft 436 kts 349°
2026-05-06 21:18 29.87244 -81.35940 30616 ft 435 kts 349°
2026-05-06 21:18 29.90259 -81.36112 31015 ft 433 kts 349°
2026-05-06 21:19 29.93303 -81.36284 31438 ft 431 kts 349°
2026-05-06 21:19 29.96288 -81.36453 31860 ft 429 kts 349°
2026-05-06 21:19 29.99260 -81.36624 32281 ft 426 kts 349°
2026-05-06 21:19 30.02214 -81.36795 32709 ft 424 kts 349°
2026-05-06 21:20 30.05154 -81.36968 33151 ft 422 kts 349°
2026-05-06 21:20 30.07093 -81.37082 33420 ft 421 kts 349°
2026-05-06 21:20 30.10011 -81.37252 33850 ft 419 kts 349°
2026-05-06 21:20 30.12913 -81.37419 34271 ft 416 kts 349°
2026-05-06 21:21 30.15801 -81.37585 34618 ft 415 kts 349°
2026-05-06 21:21 30.18679 -81.37750 34913 ft 414 kts 348°
2026-05-06 21:21 30.21559 -81.37918 35036 ft 415 kts 348°
2026-05-06 21:22 30.27418 -81.38270 35058 ft 427 kts 348°
2026-05-06 21:22 30.33385 -81.38617 35055 ft 431 kts 349°
2026-05-06 21:23 30.39385 -81.38961 35055 ft 431 kts 349°
2026-05-06 21:23 30.45379 -81.39303 35054 ft 431 kts 349°
2026-05-06 21:24 30.51375 -81.39636 35054 ft 432 kts 349°
2026-05-06 21:24 30.57379 -81.39947 35058 ft 432 kts 349°
2026-05-06 21:25 30.63390 -81.40256 35059 ft 432 kts 349°
2026-05-06 21:25 30.69442 -81.40576 35076 ft 432 kts 349°
2026-05-06 21:26 30.75453 -81.40898 35072 ft 432 kts 349°
2026-05-06 21:26 30.81464 -81.41222 35068 ft 432 kts 349°
2026-05-06 21:27 30.87479 -81.41537 35066 ft 433 kts 349°
2026-05-06 21:27 30.93499 -81.41844 35062 ft 433 kts 349°
2026-05-06 21:28 30.99519 -81.42158 35073 ft 433 kts 348°
2026-05-06 21:28 31.05531 -81.42487 35067 ft 432 kts 348°
2026-05-06 21:29 31.11542 -81.42815 35059 ft 432 kts 348°
2026-05-06 21:29 31.17544 -81.43143 35057 ft 432 kts 348°
2026-05-06 21:30 31.23570 -81.43285 35062 ft 441 kts 357°
2026-05-06 21:30 31.26625 -81.42602 35077 ft 455 kts
2026-05-06 21:30 31.29614 -81.41208 35072 ft 467 kts 15°
2026-05-06 21:31 31.35503 -81.37995 35053 ft 467 kts 15°
2026-05-06 21:31 31.41402 -81.34788 35046 ft 468 kts 15°
2026-05-06 21:32 31.47314 -81.31583 35045 ft 468 kts 15°
2026-05-06 21:32 31.56184 -81.26766 35063 ft 469 kts 15°
2026-05-06 21:33 31.62100 -81.23542 35055 ft 468 kts 15°
2026-05-06 21:33 31.68008 -81.20313 35045 ft 468 kts 15°
2026-05-06 21:34 31.73911 -81.17083 35034 ft 468 kts 15°
2026-05-06 21:34 31.79815 -81.13847 35031 ft 468 kts 15°
2026-05-06 21:35 31.85721 -81.10610 35019 ft 468 kts 15°
2026-05-06 21:35 31.91630 -81.07370 35011 ft 469 kts 15°
2026-05-06 21:36 31.97546 -81.04120 35006 ft 469 kts 15°
2026-05-06 21:36 32.03456 -81.00859 35033 ft 470 kts 15°
2026-05-06 21:37 32.09368 -80.97547 35022 ft 471 kts 15°
2026-05-06 21:37 32.15327 -80.94191 35048 ft 471 kts 15°
2026-05-06 21:38 32.21252 -80.90868 35067 ft 472 kts 15°
2026-05-06 21:38 32.27181 -80.87540 35082 ft 471 kts 15°
2026-05-06 21:39 32.33109 -80.84213 35088 ft 472 kts 15°
2026-05-06 21:39 32.39043 -80.80876 35056 ft 472 kts 15°
2026-05-06 21:40 32.44974 -80.77515 35051 ft 473 kts 15°
2026-05-06 21:40 32.50906 -80.74154 35050 ft 473 kts 15°
2026-05-06 21:41 32.56842 -80.70803 35068 ft 472 kts 15°
2026-05-06 21:41 32.62776 -80.67450 35061 ft 473 kts 15°
2026-05-06 21:42 32.68710 -80.64082 35058 ft 472 kts 15°
2026-05-06 21:42 32.74634 -80.60694 35054 ft 473 kts 15°
2026-05-06 21:43 32.80536 -80.57187 35086 ft 474 kts 16°
2026-05-06 21:43 32.86412 -80.53643 35032 ft 473 kts 17°
2026-05-06 21:44 32.92295 -80.50123 35026 ft 473 kts 16°
2026-05-06 21:44 32.98195 -80.46615 35029 ft 474 kts 16°
2026-05-06 21:45 33.04091 -80.43099 35025 ft 474 kts 16°
2026-05-06 21:45 33.09985 -80.39576 35002 ft 474 kts 16°
2026-05-06 21:46 33.15888 -80.36040 35005 ft 475 kts 16°
2026-05-06 21:46 33.21791 -80.32503 35010 ft 475 kts 16°
2026-05-06 21:47 33.27687 -80.28962 35014 ft 475 kts 16°
2026-05-06 21:47 33.33597 -80.25410 35038 ft 475 kts 17°
2026-05-06 21:48 33.39512 -80.21845 35023 ft 476 kts 17°
2026-05-06 21:48 33.45473 -80.18246 35018 ft 477 kts 17°
2026-05-06 21:49 33.51399 -80.14661 35024 ft 477 kts 16°
2026-05-06 21:49 33.57322 -80.11079 35054 ft 477 kts 16°
2026-05-06 21:50 33.63243 -80.07491 35038 ft 476 kts 16°
2026-05-06 21:50 33.69147 -80.03896 35025 ft 476 kts 16°
2026-05-06 21:51 33.75048 -80.00308 35022 ft 475 kts 16°
2026-05-06 21:51 33.80947 -79.96722 35054 ft 475 kts 17°
2026-05-06 21:52 33.86833 -79.93127 35013 ft 474 kts 17°
2026-05-06 21:52 33.92711 -79.89539 34997 ft 474 kts 17°
2026-05-06 21:53 33.98607 -79.85944 35014 ft 474 kts 17°
2026-05-06 21:53 34.04490 -79.82343 35012 ft 475 kts 17°
2026-05-06 21:54 34.09391 -79.79331 35016 ft 475 kts 17°
2026-05-06 21:54 34.15274 -79.75713 35022 ft 474 kts 17°
2026-05-06 21:55 34.21190 -79.72075 35018 ft 474 kts 17°
2026-05-06 21:55 34.27063 -79.68458 35026 ft 473 kts 17°
2026-05-06 21:56 34.32935 -79.64831 35030 ft 474 kts 17°
2026-05-06 21:56 34.38802 -79.61195 35023 ft 474 kts 17°
2026-05-06 21:57 34.44675 -79.57557 35013 ft 474 kts 17°
2026-05-06 21:57 34.50543 -79.53921 35003 ft 474 kts 17°
2026-05-06 21:58 34.56410 -79.50261 35021 ft 475 kts 18°
2026-05-06 21:58 34.62241 -79.46407 35003 ft 478 kts 19°
2026-05-06 21:59 34.68043 -79.42427 34990 ft 479 kts 20°
2026-05-06 21:59 34.73852 -79.38452 34990 ft 479 kts 20°
2026-05-06 22:00 34.79677 -79.34498 35019 ft 480 kts 19°
2026-05-06 22:00 34.85522 -79.30556 35009 ft 480 kts 19°
2026-05-06 22:01 34.91366 -79.26607 35005 ft 481 kts 19°
2026-05-06 22:01 34.97215 -79.22628 34991 ft 481 kts 20°
2026-05-06 22:02 35.03061 -79.18635 34990 ft 482 kts 19°
2026-05-06 22:02 35.08913 -79.14636 34973 ft 482 kts 19°
2026-05-06 22:03 35.14768 -79.10637 34965 ft 482 kts 19°
2026-05-06 22:03 35.20660 -79.06599 34969 ft 483 kts 19°
2026-05-06 22:04 35.26510 -79.02582 34993 ft 482 kts 19°
2026-05-06 22:04 35.32366 -78.98559 34986 ft 483 kts 19°
2026-05-06 22:05 35.38227 -78.94528 34977 ft 483 kts 19°
2026-05-06 22:05 35.44088 -78.90486 34971 ft 483 kts 19°
2026-05-06 22:06 35.49948 -78.86449 34973 ft 483 kts 19°
2026-05-06 22:06 35.55812 -78.82405 34973 ft 484 kts 19°
2026-05-06 22:07 35.61668 -78.78341 34974 ft 484 kts 19°
2026-05-06 22:07 35.67522 -78.74264 34977 ft 484 kts 19°
2026-05-06 22:08 35.73392 -78.70182 34988 ft 485 kts 19°
2026-05-06 22:08 35.79280 -78.66100 34970 ft 486 kts 19°
2026-05-06 22:09 35.85166 -78.61998 34980 ft 486 kts 19°
2026-05-06 22:09 35.91047 -78.57882 34986 ft 486 kts 19°
2026-05-06 22:10 35.96923 -78.53759 35001 ft 486 kts 19°
2026-05-06 22:10 36.02853 -78.49602 34982 ft 487 kts 19°
2026-05-06 22:11 36.08756 -78.45463 34979 ft 488 kts 19°
2026-05-06 22:11 36.14664 -78.41318 34979 ft 489 kts 19°
2026-05-06 22:12 36.20577 -78.37145 35002 ft 490 kts 19°
2026-05-06 22:12 36.26492 -78.32955 34979 ft 490 kts 19°
2026-05-06 22:13 36.32414 -78.28768 34972 ft 490 kts 19°
2026-05-06 22:13 36.38243 -78.24307 34964 ft 503 kts 28°
2026-05-06 22:14 36.43463 -78.18329 34977 ft 512 kts 33°
2026-05-06 22:14 36.48625 -78.12232 34962 ft 512 kts 33°
2026-05-06 22:15 36.53795 -78.06144 34956 ft 512 kts 33°
2026-05-06 22:15 36.58966 -78.00048 34996 ft 512 kts 33°
2026-05-06 22:16 36.64136 -77.93951 35012 ft 512 kts 33°
2026-05-06 22:16 36.69308 -77.87838 34997 ft 512 kts 33°
2026-05-06 22:17 36.74469 -77.81713 34988 ft 512 kts 33°
2026-05-06 22:17 36.79618 -77.75566 34954 ft 512 kts 33°
2026-05-06 22:18 36.84773 -77.69431 34985 ft 512 kts 33°
2026-05-06 22:18 36.89987 -77.63301 34953 ft 508 kts 30°
2026-05-06 22:19 36.95422 -77.57723 34922 ft 504 kts 28°
2026-05-06 22:19 37.00903 -77.52256 34936 ft 503 kts 28°
2026-05-06 22:20 37.06377 -77.46809 34972 ft 503 kts 28°
2026-05-06 22:20 37.11880 -77.41385 34959 ft 503 kts 27°
2026-05-06 22:21 37.17384 -77.35969 34951 ft 503 kts 27°
2026-05-06 22:21 37.22895 -77.30550 34947 ft 503 kts 27°
2026-05-06 22:22 37.28417 -77.25126 34953 ft 504 kts 27°
2026-05-06 22:22 37.33963 -77.19716 34920 ft 504 kts 27°
2026-05-06 22:23 37.39529 -77.14358 34927 ft 503 kts 27°
2026-05-06 22:23 37.45139 -77.09156 34930 ft 498 kts 24°
2026-05-06 22:24 37.50907 -77.04358 34932 ft 496 kts 21°
2026-05-06 22:24 37.56723 -76.99617 34903 ft 500 kts 22°
2026-05-06 22:25 37.62509 -76.94701 34900 ft 503 kts 24°
2026-05-06 22:25 37.68276 -76.89692 34902 ft 504 kts 24°
2026-05-06 22:26 37.74065 -76.84678 34909 ft 504 kts 24°
2026-05-06 22:26 37.79851 -76.79684 34922 ft 503 kts 24°
2026-05-06 22:27 37.84698 -76.75512 34923 ft 503 kts 24°
2026-05-06 22:27 37.90479 -76.70513 34941 ft 503 kts 23°
2026-05-06 22:28 37.96257 -76.65510 34919 ft 503 kts 23°
2026-05-06 22:28 38.02037 -76.60490 34904 ft 504 kts 23°
2026-05-06 22:29 38.07819 -76.55452 34898 ft 504 kts 24°
2026-05-06 22:29 38.13608 -76.50403 34912 ft 505 kts 23°
2026-05-06 22:30 38.19409 -76.45344 34892 ft 506 kts 23°
2026-05-06 22:30 38.25208 -76.40271 34881 ft 507 kts 23°
2026-05-06 22:31 38.31019 -76.35161 34886 ft 507 kts 23°
2026-05-06 22:31 38.36870 -76.30016 34907 ft 508 kts 23°
2026-05-06 22:32 38.42682 -76.24888 34902 ft 509 kts 23°
2026-05-06 22:32 38.48497 -76.19746 34898 ft 509 kts 23°
2026-05-06 22:33 38.54306 -76.14626 34917 ft 506 kts 23°
2026-05-06 22:33 38.60065 -76.09527 34867 ft 502 kts 23°
2026-05-06 22:34 38.65831 -76.04416 33964 ft 509 kts 24°
2026-05-06 22:34 38.68763 -76.01823 32973 ft 515 kts 24°
2026-05-06 22:34 38.71714 -75.99203 32047 ft 518 kts 25°
2026-05-06 22:35 38.74682 -75.96556 31111 ft 522 kts 25°
2026-05-06 22:35 38.77672 -75.93880 30334 ft 522 kts 25°
2026-05-06 22:35 38.80626 -75.91220 29767 ft 516 kts 26°
2026-05-06 22:35 38.83554 -75.88584 29113 ft 511 kts 26°
2026-05-06 22:36 38.86449 -75.85982 28512 ft 506 kts 26°
2026-05-06 22:36 38.89317 -75.83408 27902 ft 500 kts 26°
2026-05-06 22:36 38.92161 -75.80861 27306 ft 495 kts 26°
2026-05-06 22:36 38.95000 -75.78313 26956 ft 486 kts 26°
2026-05-06 22:37 38.97733 -75.75799 26835 ft 482 kts 27°
2026-05-06 22:37 39.00442 -75.73255 26868 ft 482 kts 27°
2026-05-06 22:37 39.03135 -75.70697 26862 ft 482 kts 27°
2026-05-06 22:37 39.05830 -75.68124 26861 ft 482 kts 27°
2026-05-06 22:38 39.08525 -75.65549 26859 ft 482 kts 27°
2026-05-06 22:38 39.11217 -75.62977 26860 ft 482 kts 27°
2026-05-06 22:38 39.13910 -75.60406 26893 ft 482 kts 27°
2026-05-06 22:38 39.16612 -75.57830 26845 ft 482 kts 27°
2026-05-06 22:39 39.19311 -75.55264 26863 ft 483 kts 27°
2026-05-06 22:39 39.22025 -75.52685 26861 ft 483 kts 27°
2026-05-06 22:39 39.24730 -75.50136 26859 ft 482 kts 26°
2026-05-06 22:39 39.27439 -75.47674 26860 ft 481 kts 25°
2026-05-06 22:40 39.30229 -75.45210 26859 ft 480 kts 25°
2026-05-06 22:40 39.32995 -75.42799 26860 ft 479 kts 24°
2026-05-06 22:40 39.35763 -75.40394 26696 ft 480 kts 24°
2026-05-06 22:40 39.38540 -75.37969 25433 ft 483 kts 25°
2026-05-06 22:41 39.44074 -75.33066 23127 ft 478 kts 26°
2026-05-06 22:41 39.46787 -75.30628 22006 ft 470 kts 26°
2026-05-06 22:41 39.49431 -75.28241 21144 ft 458 kts 27°
2026-05-06 22:42 39.51979 -75.25925 20863 ft 439 kts 27°
2026-05-06 22:42 39.54453 -75.23636 20643 ft 435 kts 27°
2026-05-06 22:42 39.56903 -75.21346 20402 ft 433 kts 27°
2026-05-06 22:42 39.59340 -75.19053 20146 ft 431 kts 28°
2026-05-06 22:43 39.61757 -75.16779 19697 ft 428 kts 28°
2026-05-06 22:43 39.64141 -75.14537 19243 ft 426 kts 28°
2026-05-06 22:43 39.66545 -75.12271 18774 ft 423 kts 28°
2026-05-06 22:43 39.68923 -75.10052 18315 ft 419 kts 27°
2026-05-06 22:44 39.71318 -75.07928 17819 ft 414 kts 26°
2026-05-06 22:44 39.73707 -75.05883 17361 ft 408 kts 26°
2026-05-06 22:44 39.76071 -75.03890 17078 ft 403 kts 26°
2026-05-06 22:44 39.78422 -75.01914 16670 ft 401 kts 26°
2026-05-06 22:45 39.80752 -74.99936 16234 ft 399 kts 26°
2026-05-06 22:45 39.83066 -74.97953 15803 ft 397 kts 26°
2026-05-06 22:45 39.85359 -74.95972 15373 ft 395 kts 27°
2026-05-06 22:45 39.87628 -74.93962 14939 ft 393 kts 28°
2026-05-06 22:46 39.89865 -74.91939 14517 ft 391 kts 28°
2026-05-06 22:46 39.92057 -74.89825 14118 ft 394 kts 35°
2026-05-06 22:46 39.93987 -74.87259 13693 ft 398 kts 44°
2026-05-06 22:46 39.95807 -74.84614 13563 ft 385 kts 43°
2026-05-06 22:47 39.97576 -74.82064 13431 ft 373 kts 43°
2026-05-06 22:47 39.99323 -74.79561 13253 ft 364 kts 43°
2026-05-06 22:47 40.01019 -74.77142 12934 ft 358 kts 42°
2026-05-06 22:47 40.02692 -74.74764 12308 ft 354 kts 42°
2026-05-06 22:48 40.04336 -74.72421 11788 ft 347 kts 43°
2026-05-06 22:48 40.05946 -74.70110 11233 ft 341 kts 43°
2026-05-06 22:48 40.07532 -74.67831 10674 ft 337 kts 43°
2026-05-06 22:48 40.09108 -74.65567 10144 ft 340 kts 44°
2026-05-06 22:49 40.10698 -74.63285 9901 ft 336 kts 43°
2026-05-06 22:49 40.12255 -74.61043 9752 ft 331 kts 43°
2026-05-06 22:49 40.13801 -74.58817 9591 ft 330 kts 44°
2026-05-06 22:49 40.15341 -74.56596 9438 ft 329 kts 44°
2026-05-06 22:50 40.16874 -74.54381 9295 ft 328 kts 44°
2026-05-06 22:50 40.18398 -74.52180 9148 ft 327 kts 44°
2026-05-06 22:50 40.19922 -74.49979 9003 ft 326 kts 44°
2026-05-06 22:50 40.21475 -74.47839 8859 ft 323 kts 41°
2026-05-06 22:51 40.23072 -74.45785 8730 ft 321 kts 39°
2026-05-06 22:51 40.24686 -74.43776 8592 ft 320 kts 39°
2026-05-06 22:51 40.26301 -74.41783 8451 ft 319 kts 39°
2026-05-06 22:51 40.27908 -74.39791 8311 ft 317 kts 39°
2026-05-06 22:52 40.29501 -74.37798 8174 ft 318 kts 39°
2026-05-06 22:52 40.31098 -74.35788 8026 ft 317 kts 39°
2026-05-06 22:52 40.32681 -74.33783 7891 ft 316 kts 40°
2026-05-06 22:52 40.34257 -74.31780 7749 ft 315 kts 40°
2026-05-06 22:53 40.35826 -74.29788 7614 ft 313 kts 40°
2026-05-06 22:53 40.37386 -74.27809 7460 ft 311 kts 40°
2026-05-06 22:53 40.38943 -74.25834 7334 ft 311 kts 40°
2026-05-06 22:53 40.40496 -74.23865 7181 ft 310 kts 40°
2026-05-06 22:54 40.42039 -74.21905 7045 ft 309 kts 40°
2026-05-06 22:54 40.43583 -74.19943 6912 ft 307 kts 40°
2026-05-06 22:54 40.45111 -74.17996 6775 ft 306 kts 40°
2026-05-06 22:54 40.46636 -74.16050 6659 ft 305 kts 40°
2026-05-06 22:55 40.48172 -74.14088 6507 ft 304 kts 40°
2026-05-06 22:55 40.49672 -74.12175 6376 ft 303 kts 40°
2026-05-06 22:55 40.51182 -74.10252 6238 ft 302 kts 39°
2026-05-06 22:55 40.52816 -74.08580 6093 ft 295 kts 27°
2026-05-06 22:56 40.54548 -74.07131 5970 ft 295 kts 27°
2026-05-06 22:56 40.56297 -74.05658 5842 ft 295 kts 28°
2026-05-06 22:56 40.57998 -74.04214 5713 ft 294 kts 28°
2026-05-06 22:56 40.59735 -74.02736 5582 ft 294 kts 28°
2026-05-06 22:57 40.61444 -74.01287 5370 ft 292 kts 28°
2026-05-06 22:57 40.63149 -73.99845 5079 ft 290 kts 27°
2026-05-06 22:57 40.64852 -73.98410 5020 ft 291 kts 27°
2026-05-06 22:57 40.66559 -73.96975 5027 ft 292 kts 27°
2026-05-06 22:58 40.67693 -73.96020 5026 ft 292 kts 28°
2026-05-06 22:58 40.69425 -73.94570 5025 ft 292 kts 27°
2026-05-06 22:58 40.71147 -73.93227 5022 ft 288 kts 17°
2026-05-06 22:58 40.73042 -73.92721 4792 ft 273 kts 353°
2026-05-06 22:59 40.74918 -73.92881 4459 ft 269 kts 348°
2026-05-06 22:59 40.76776 -73.93125 4108 ft 268 kts 348°
2026-05-06 22:59 40.78627 -73.93390 3799 ft 267 kts 347°
2026-05-06 22:59 40.80495 -73.93658 3488 ft 266 kts 347°
2026-05-06 23:00 40.82325 -73.93927 3169 ft 265 kts 348°
2026-05-06 23:00 40.84130 -73.94199 3011 ft 264 kts 347°
2026-05-06 23:00 40.85977 -73.94466 3011 ft 265 kts 347°
2026-05-06 23:00 40.87816 -73.94740 3003 ft 266 kts 347°
2026-05-06 23:01 40.89678 -73.94833 3003 ft 269 kts
2026-05-06 23:01 40.91393 -73.93968 3004 ft 263 kts 25°
2026-05-06 23:01 40.92935 -73.92759 3001 ft 248 kts 27°
2026-05-06 23:01 40.94393 -73.91555 3002 ft 245 kts 27°
2026-05-06 23:02 40.95831 -73.90351 3003 ft 243 kts 27°
2026-05-06 23:02 40.97256 -73.89142 3012 ft 242 kts 27°
2026-05-06 23:02 40.98590 -73.87790 3003 ft 246 kts 47°
2026-05-06 23:02 40.99302 -73.85795 3004 ft 234 kts 84°
2026-05-06 23:03 40.99142 -73.83753 3052 ft 220 kts 112°
2026-05-06 23:03 40.98628 -73.81874 3016 ft 215 kts 116°
2026-05-06 23:03 40.98067 -73.80043 3008 ft 214 kts 117°
2026-05-06 23:03 40.97501 -73.78233 3012 ft 213 kts 117°
2026-05-06 23:04 40.96938 -73.76437 2854 ft 209 kts 117°
2026-05-06 23:04 40.96379 -73.74657 2566 ft 209 kts 119°
2026-05-06 23:04 40.95516 -73.73237 2274 ft 191 kts 161°
2026-05-06 23:04 40.94318 -73.73135 2077 ft 166 kts 213°
2026-05-06 23:05 40.93578 -73.74233 2012 ft 162 kts 242°
2026-05-06 23:05 40.92796 -73.75286 2015 ft 166 kts 213°
2026-05-06 23:05 40.91778 -73.76026 2009 ft 167 kts 217°
2026-05-06 23:05 40.90801 -73.76878 2015 ft 169 kts 217°
2026-05-06 23:06 40.89816 -73.77715 2010 ft 168 kts 218°
2026-05-06 23:06 40.88836 -73.78534 2003 ft 162 kts 217°
2026-05-06 23:06 40.87920 -73.79294 1996 ft 150 kts 218°
2026-05-06 23:06 40.87040 -73.80026 1925 ft 148 kts 217°
2026-05-06 23:07 40.86178 -73.80742 1771 ft 145 kts 217°
2026-05-06 23:07 40.85324 -73.81450 1595 ft 144 kts 216°
2026-05-06 23:07 40.84463 -73.82165 1398 ft 147 kts 216°
2026-05-06 23:07 40.83622 -73.82860 1197 ft 137 kts 216°
2026-05-06 23:08 40.82824 -73.83522 1018 ft 134 kts 215°
2026-05-06 23:08 40.82035 -73.84176 833 ft 134 kts 214°
2026-05-06 23:08 40.81249 -73.84827 672 ft 133 kts 212°
2026-05-06 23:08 40.80458 -73.85481 511 ft 134 kts 212°
2026-05-06 23:09 40.79669 -73.86146 317 ft 131 kts 212°
2026-05-06 23:09 40.78872 -73.86792 133 ft 135 kts 211°
2026-05-06 23:09 40.78134 -73.87408 13 ft 127 kts 212°
2026-05-06 23:09 40.77632 -73.87822 21 ft 41 kts 212°
2026-05-06 23:10 40.77406 -73.87988 20 ft 31 kts 191°
2026-05-06 23:10 40.77297 -73.87962 19 ft 10 kts 89°
2026-05-06 23:10 40.77345 -73.87909 20 ft 10 kts 32°
2026-05-06 23:10 40.77403 -73.87863 22 ft 9 kts 32°
2026-05-06 23:11 40.77466 -73.87810 23 ft 13 kts 32°
2026-05-06 23:11 40.77557 -73.87733 22 ft 17 kts 32°
2026-05-06 23:11 40.77609 -73.87626 23 ft 14 kts 73°
2026-05-06 23:11 40.77692 -73.87539 22 ft 17 kts 33°
2026-05-06 23:12 40.77766 -73.87392 18 ft 22 kts 72°
2026-05-06 23:12 40.77743 -73.87201 18 ft 15 kts 122°
2026-05-06 23:12 40.77724 -73.87163 18 ft 5 kts 124°
2026-05-06 23:12 40.77716 -73.87146 18 ft 0 kts 124°
2026-05-06 23:13 40.77714 -73.87143 18 ft 2 kts 124°
2026-05-06 23:13 40.77696 -73.87106 18 ft 10 kts 122°
2026-05-06 23:13 40.77632 -73.87009 14 ft 17 kts 158°
2026-05-06 23:14 40.77518 -73.87055 15 ft 18 kts 212°
2026-05-06 23:14 40.77443 -73.87027 18 ft 6 kts 131°
2026-05-06 23:14 40.77425 -73.87000 17 ft 0 kts 126°